Time,TemperatureF,DewpointF,PressureIn,WindDirection,WindDirectionDegrees,WindSpeedMPH,WindSpeedGustMPH,Humidity,HourlyPrecipIn,Conditions,Clouds,dailyrainin,SolarRadiationWatts/m^2,SoftwareType,DateUTC
2013-07-08 06:43:00,77.0,73.0,-100.00,East,83,5.0,9.0,88,-99.99,,,-99.99,0.000000,,2013-07-08 10:43:00,
2013-07-08 06:53:00,77.0,73.0,-100.00,East,83,5.0,9.0,88,-99.99,,,-99.99,0.000000,,2013-07-08 10:53:00,
2013-07-08 07:02:00,77.0,73.0,-100.00,East,83,5.0,9.0,88,-99.99,,,-99.99,0.000000,,2013-07-08 11:02:00,
2013-07-08 07:11:00,77.0,73.0,-100.00,East,83,5.0,9.0,88,-99.99,,,-99.99,0.000000,,2013-07-08 11:11:00,
2013-07-08 08:43:00,81.0,74.0,-100.00,East,82,7.0,12.0,79,-99.99,,,-99.99,118.000000,,2013-07-08 12:43:00,
2013-07-08 08:53:00,81.0,74.0,-100.00,East,82,7.0,12.0,79,-99.99,,,-99.99,118.000000,,2013-07-08 12:53:00,
2013-07-08 09:02:00,81.0,74.0,-100.00,East,82,7.0,12.0,79,-99.99,,,-99.99,118.000000,,2013-07-08 13:02:00,
2013-07-08 09:11:00,81.0,74.0,-100.00,East,82,7.0,12.0,79,-99.99,,,-99.99,118.000000,,2013-07-08 13:11:00,
2013-07-08 09:53:00,83.0,74.0,-100.00,ESE,111,8.0,13.0,74,0.00,,,0.00,280.000000,,2013-07-08 13:53:00,
2013-07-08 10:02:00,83.0,74.0,-100.00,ESE,111,8.0,13.0,74,0.00,,,0.00,280.000000,,2013-07-08 14:02:00,
2013-07-08 10:12:00,83.0,74.0,-100.00,ESE,111,8.0,13.0,74,0.00,,,0.00,280.000000,,2013-07-08 14:12:00,
2013-07-08 10:43:00,85.0,74.0,-100.00,ESE,111,8.0,14.0,69,0.00,,,0.00,438.000000,,2013-07-08 14:43:00,
2013-07-08 10:53:00,85.0,74.0,-100.00,ESE,111,8.0,14.0,69,0.00,,,0.00,438.000000,,2013-07-08 14:53:00,
2013-07-08 11:02:00,85.0,74.0,-100.00,ESE,111,8.0,14.0,69,0.00,,,0.00,438.000000,,2013-07-08 15:02:00,
2013-07-08 11:11:00,85.0,74.0,-100.00,ESE,111,8.0,14.0,69,0.00,,,0.00,438.000000,,2013-07-08 15:11:00,
2013-07-08 11:43:00,87.0,72.0,-100.00,ESE,120,8.0,16.0,62,0.00,,,0.00,548.000000,,2013-07-08 15:43:00,
2013-07-08 11:53:00,87.0,72.0,-100.00,ESE,120,8.0,16.0,62,0.00,,,0.00,548.000000,,2013-07-08 15:53:00,
2013-07-08 12:01:00,87.0,72.0,-100.00,ESE,120,8.0,16.0,62,0.00,,,0.00,548.000000,,2013-07-08 16:01:00,
2013-07-08 12:11:00,87.0,72.0,-100.00,ESE,120,8.0,16.0,62,0.00,,,0.00,548.000000,,2013-07-08 16:11:00,
2013-07-08 12:43:00,89.0,72.0,-100.00,SE,139,6.0,13.0,58,0.00,,,0.00,701.000000,,2013-07-08 16:43:00,
2013-07-08 13:07:00,89.0,72.0,-100.00,SE,139,6.0,13.0,58,0.00,,,0.00,701.000000,,2013-07-08 17:07:00,
2013-07-08 13:14:00,89.0,72.0,-100.00,SE,139,6.0,13.0,58,0.00,,,0.00,701.000000,,2013-07-08 17:14:00,
2013-07-08 13:55:00,90.0,71.0,-100.00,East,101,6.0,13.0,53,0.00,,,-99.99,748.000000,,2013-07-08 17:55:00,
2013-07-08 14:11:00,90.0,71.0,-100.00,East,101,6.0,13.0,53,0.00,,,-99.99,748.000000,,2013-07-08 18:11:00,
2013-07-08 14:17:00,91.0,71.0,-100.00,ESE,119,5.0,15.0,53,0.00,,,0.00,746.000000,,2013-07-08 18:17:00,
2013-07-08 14:56:00,91.0,71.0,-100.00,ESE,119,5.0,15.0,53,0.00,,,0.00,746.000000,,2013-07-08 18:56:00,
2013-07-08 15:13:00,91.0,71.0,-100.00,ESE,119,5.0,15.0,53,0.00,,,0.00,746.000000,,2013-07-08 19:13:00,
2013-07-08 15:17:00,92.0,72.0,-100.00,South,181,5.0,12.0,52,0.00,,,0.00,636.000000,,2013-07-08 19:17:00,
2013-07-08 16:15:00,92.0,72.0,-100.00,South,181,5.0,12.0,52,0.00,,,0.00,636.000000,,2013-07-08 20:15:00,
2013-07-08 16:17:00,86.0,74.0,-100.00,SSW,210,7.0,15.0,67,0.00,,,0.00,518.000000,,2013-07-08 20:17:00,
2013-07-08 16:57:00,86.0,74.0,-100.00,SSW,210,7.0,15.0,67,0.00,,,0.00,518.000000,,2013-07-08 20:57:00,
2013-07-08 17:09:00,86.0,74.0,-100.00,SSW,210,7.0,15.0,67,0.00,,,0.00,518.000000,,2013-07-08 21:09:00,
2013-07-08 17:17:00,82.0,69.0,-100.00,NNE,24,8.0,21.0,65,0.00,,,0.00,288.000000,,2013-07-08 21:17:00,
2013-07-08 17:58:00,82.0,69.0,-100.00,NNE,24,8.0,21.0,65,0.00,,,0.00,288.000000,,2013-07-08 21:58:00,
2013-07-08 18:17:00,75.0,71.0,-100.00,NW,313,0.0,18.0,86,0.03,,,0.03,51.000000,,2013-07-08 22:17:00,
2013-07-08 19:01:00,75.0,71.0,-100.00,NW,313,0.0,18.0,86,0.03,,,0.03,51.000000,,2013-07-08 23:01:00,
2013-07-08 19:10:00,75.0,71.0,-100.00,NW,313,0.0,18.0,86,0.03,,,0.03,51.000000,,2013-07-08 23:10:00,
2013-07-08 19:17:00,80.0,71.0,-100.00,NNE,22,0.0,0.0,75,0.00,,,0.03,137.000000,,2013-07-08 23:17:00,
2013-07-08 20:01:00,80.0,71.0,-100.00,NNE,22,0.0,0.0,75,0.00,,,0.03,137.000000,,2013-07-09 00:01:00,
2013-07-08 20:10:00,80.0,71.0,-100.00,NNE,22,0.0,0.0,75,0.00,,,0.03,137.000000,,2013-07-09 00:10:00,
2013-07-08 20:17:00,78.0,74.0,-100.00,SW,227,0.0,0.0,89,0.00,,,0.03,31.000000,,2013-07-09 00:17:00,
2013-07-08 21:00:00,78.0,74.0,-100.00,SW,227,0.0,0.0,89,0.00,,,0.03,31.000000,,2013-07-09 01:00:00,
2013-07-08 21:10:00,78.0,74.0,-100.00,SW,227,0.0,0.0,89,0.00,,,0.03,31.000000,,2013-07-09 01:10:00,
2013-07-08 21:17:00,77.0,73.0,-100.00,WNW,294,0.0,0.0,87,0.00,,,-99.99,2.000000,,2013-07-09 01:17:00,
2013-07-08 22:10:00,77.0,73.0,-100.00,WNW,294,0.0,0.0,87,0.00,,,-99.99,2.000000,,2013-07-09 02:10:00,
2013-07-08 22:17:00,-999.0,-99.9,-100.00,North,-999,0.0,-999.0,-999,0.00,,,-99.99,,,2013-07-09 02:17:00,
2013-07-08 23:06:00,-999.0,-99.9,-100.00,North,-999,0.0,-999.0,-999,0.00,,,-99.99,,,2013-07-09 03:06:00,